• Em Portugal
  • Lista de países
  • Para 7 dias
  • Temperatura da água
  • Mapas de satélite
  • Mapa do tempo
  • Widgets de tempo
  • user-avatar
    Iniciar Sessão

    Previsão horária em Córdoba

    Hoje, 16 Dezembro, Sábado

    Tempo Temperatura Precipitação Vento Pressão Humidade
    00:00 +26°C° 0,2 mm 2 m/s 718 mmHg 66%
    01:00 +25°C° 0,2 mm 2 m/s 717 mmHg 68%
    02:00 +26°C° 0 mm 2 m/s 717 mmHg 59%
    03:00 +26°C° 0 mm 2 m/s 717 mmHg 59%
    04:00 +26°C° 0 mm 2 m/s 717 mmHg 60%
    05:00 +26°C° 0 mm 2 m/s 717 mmHg 60%
    06:00 +28°C° 0 mm 3 m/s 717 mmHg 54%
    07:00 +32°C° 0 mm 5 m/s 717 mmHg 48%
    08:00 +34°C° 0 mm 6 m/s 717 mmHg 41%
    09:00 +36°C° 0 mm 7 m/s 717 mmHg 36%
    10:00 +40°C° 0 mm 8 m/s 716 mmHg 30%
    11:00 +43°C° 0 mm 9 m/s 716 mmHg 25%
    12:00 +44°C° 0 mm 9 m/s 715 mmHg 24%
    13:00 +45°C° 0 mm 9 m/s 715 mmHg 23%
    14:00 +47°C° 0 mm 9 m/s 714 mmHg 22%
    15:00 +45°C° 0 mm 9 m/s 713 mmHg 22%
    16:00 +45°C° 0 mm 8 m/s 713 mmHg 23%
    17:00 +45°C° 0 mm 8 m/s 712 mmHg 23%
    18:00 +41°C° 0,1 mm 6 m/s 712 mmHg 28%
    19:00 +39°C° 0,1 mm 5 m/s 712 mmHg 32%
    20:00 +35°C° 0,1 mm 3 m/s 712 mmHg 37%
    21:00 +35°C° 0,1 mm 3 m/s 713 mmHg 38%
    22:00 +34°C° 0,1 mm 4 m/s 713 mmHg 39%
    23:00 +34°C° 0,1 mm 4 m/s 714 mmHg 40%

    Amanhã, 17 Dezembro, Domingo

    Tempo Temperatura Precipitação Vento Pressão Humidade
    00:00 +32°C° 2 mm 6 m/s 715 mmHg 52%
    01:00 +28°C° 2 mm 8 m/s 716 mmHg 63%
    02:00 +26°C° 2 mm 10 m/s 716 mmHg 74%
    03:00 +23°C° 1,3 mm 10 m/s 718 mmHg 73%
    04:00 +21°C° 1,3 mm 9 m/s 720 mmHg 71%
    05:00 +17°C° 1,3 mm 8 m/s 721 mmHg 70%
    06:00 +18°C° 0,2 mm 8 m/s 722 mmHg 61%
    07:00 +18°C° 0,2 mm 7 m/s 724 mmHg 52%
    08:00 +20°C° 0,2 mm 7 m/s 725 mmHg 43%
    09:00 +22°C° 0 mm 7 m/s 725 mmHg 36%
    10:00 +23°C° 0 mm 7 m/s 726 mmHg 28%
    11:00 +26°C° 0 mm 6 m/s 727 mmHg 20%
    12:00 +27°C° 0 mm 6 m/s 726 mmHg 20%
    13:00 +28°C° 0 mm 6 m/s 726 mmHg 19%
    14:00 +29°C° 0 mm 6 m/s 726 mmHg 19%
    15:00 +29°C° 0 mm 6 m/s 726 mmHg 21%
    16:00 +28°C° 0 mm 6 m/s 725 mmHg 23%
    17:00 +28°C° 0 mm 5 m/s 725 mmHg 25%
    18:00 +26°C° 0 mm 4 m/s 725 mmHg 30%
    19:00 +23°C° 0 mm 4 m/s 725 mmHg 34%
    20:00 +21°C° 0 mm 3 m/s 726 mmHg 39%
    21:00 +20°C° 0 mm 2 m/s 726 mmHg 41%
    22:00 +19°C° 0 mm 2 m/s 727 mmHg 44%
    23:00 +19°C° 0 mm 1 m/s 727 mmHg 46%

    Depois de amanhã, 18 Dezembro, Segunda-feira

    Tempo Temperatura Precipitação Vento Pressão Humidade
    00:00 +19°C° 0 mm 1 m/s 727 mmHg 48%
    01:00 +18°C° 0 mm 1 m/s 726 mmHg 50%
    02:00 +18°C° 0 mm 1 m/s 726 mmHg 52%
    03:00 +18°C° 0 mm 1 m/s 726 mmHg 54%
    04:00 +16°C° 0 mm 1 m/s 726 mmHg 56%
    05:00 +16°C° 0 mm 1 m/s 726 mmHg 58%
    06:00 +17°C° 0 mm 2 m/s 726 mmHg 56%
    07:00 +19°C° 0 mm 2 m/s 727 mmHg 55%
    08:00 +21°C° 0 mm 3 m/s 727 mmHg 53%
    09:00 +24°C° 0 mm 3 m/s 727 mmHg 48%
    10:00 +25°C° 0 mm 4 m/s 726 mmHg 43%
    11:00 +27°C° 0 mm 4 m/s 726 mmHg 38%
    12:00 +29°C° 0 mm 4 m/s 725 mmHg 35%
    13:00 +30°C° 0 mm 5 m/s 725 mmHg 32%
    14:00 +32°C° 0 mm 5 m/s 724 mmHg 29%
    15:00 +32°C° 0 mm 5 m/s 723 mmHg 29%
    16:00 +32°C° 0 mm 5 m/s 722 mmHg 29%
    17:00 +30°C° 0 mm 6 m/s 722 mmHg 29%
    18:00 +28°C° 0 mm 4 m/s 722 mmHg 32%
    19:00 +26°C° 0 mm 3 m/s 722 mmHg 36%
    20:00 +24°C° 0 mm 2 m/s 722 mmHg 39%
    21:00 +24°C° 0 mm 2 m/s 723 mmHg 39%
    22:00 +23°C° 0 mm 1 m/s 723 mmHg 40%
    23:00 +23°C° 0 mm 1 m/s 723 mmHg 40%

    19 Dezembro, Terça-feira

    Tempo Temperatura Precipitação Vento Pressão Humidade
    00:00 +23°C° 0,1 mm 1 m/s 723 mmHg 41%
    01:00 +22°C° 0,1 mm 1 m/s 723 mmHg 43%
    02:00 +22°C° 0,1 mm 1 m/s 722 mmHg 44%
    03:00 +22°C° 0,1 mm 1 m/s 722 mmHg 46%
    04:00 +22°C° 0,1 mm 1 m/s 722 mmHg 47%
    05:00 +22°C° 0,1 mm 1 m/s 722 mmHg 49%
    06:00 +22°C° 0,2 mm 1 m/s 723 mmHg 52%
    07:00 +23°C° 0,2 mm 1 m/s 723 mmHg 56%
    08:00 +23°C° 0,2 mm 1 m/s 723 mmHg 59%
    09:00 +25°C° 1,2 mm 2 m/s 723 mmHg 60%
    10:00 +26°C° 1,2 mm 3 m/s 723 mmHg 61%
    11:00 +28°C° 1,2 mm 4 m/s 723 mmHg 61%
    12:00 +27°C° 1,1 mm 4 m/s 723 mmHg 67%
    13:00 +27°C° 1,1 mm 4 m/s 722 mmHg 72%
    14:00 +26°C° 1,1 mm 4 m/s 722 mmHg 78%
    15:00 +25°C° 0,5 mm 4 m/s 722 mmHg 81%
    16:00 +25°C° 0,5 mm 3 m/s 721 mmHg 84%
    17:00 +24°C° 0,5 mm 3 m/s 721 mmHg 87%
    18:00 +24°C° 0,1 mm 3 m/s 722 mmHg 89%
    19:00 +24°C° 0,1 mm 2 m/s 722 mmHg 91%
    20:00 +23°C° 0,1 mm 2 m/s 722 mmHg 94%
    21:00 +23°C° 0,2 mm 2 m/s 722 mmHg 94%
    22:00 +23°C° 0,2 mm 2 m/s 723 mmHg 94%
    23:00 +21°C° 0,2 mm 2 m/s 723 mmHg 95%

    20 Dezembro, Quarta-feira

    Tempo Temperatura Precipitação Vento Pressão Humidade
    00:00 +21°C° 0,3 mm 2 m/s 722 mmHg 95%
    01:00 +21°C° 0,3 mm 2 m/s 722 mmHg 95%
    02:00 +21°C° 0,3 mm 2 m/s 722 mmHg 95%
    03:00 +20°C° 0,1 mm 2 m/s 722 mmHg 95%
    04:00 +21°C° 0,1 mm 1 m/s 721 mmHg 95%
    05:00 +21°C° 0,1 mm 1 m/s 721 mmHg 96%
    06:00 +22°C° 0 mm 1 m/s 722 mmHg 91%
    07:00 +23°C° 0 mm 1 m/s 722 mmHg 86%
    08:00 +24°C° 0 mm 2 m/s 722 mmHg 81%
    09:00 +26°C° 0 mm 2 m/s 722 mmHg 74%
    10:00 +28°C° 0 mm 2 m/s 721 mmHg 66%
    11:00 +30°C° 0 mm 3 m/s 721 mmHg 59%
    12:00 +31°C° 0 mm 3 m/s 720 mmHg 55%
    13:00 +34°C° 0 mm 3 m/s 720 mmHg 50%
    14:00 +35°C° 0 mm 3 m/s 719 mmHg 46%
    15:00 +35°C° 0 mm 4 m/s 718 mmHg 46%
    16:00 +35°C° 0 mm 4 m/s 718 mmHg 46%
    17:00 +35°C° 0 mm 5 m/s 717 mmHg 47%
    18:00 +32°C° 0 mm 4 m/s 718 mmHg 55%
    19:00 +29°C° 0 mm 4 m/s 718 mmHg 63%
    20:00 +27°C° 0 mm 3 m/s 718 mmHg 72%
    21:00 +26°C° 0 mm 3 m/s 718 mmHg 76%
    22:00 +25°C° 0 mm 2 m/s 718 mmHg 80%
    23:00 +25°C° 0 mm 2 m/s 718 mmHg 85%

    21 Dezembro, Quinta-feira

    Tempo Temperatura Precipitação Vento Pressão Humidade
    00:00 +24°C° 0 mm 2 m/s 718 mmHg 86%
    01:00 +24°C° 0 mm 2 m/s 717 mmHg 87%
    02:00 +24°C° 0 mm 2 m/s 717 mmHg 88%
    03:00 +24°C° 0 mm 2 m/s 717 mmHg 89%
    04:00 +23°C° 0 mm 2 m/s 717 mmHg 90%
    05:00 +23°C° 0 mm 1 m/s 717 mmHg 91%
    06:00 +25°C° 0 mm 2 m/s 717 mmHg 83%
    07:00 +27°C° 0 mm 3 m/s 718 mmHg 75%
    08:00 +29°C° 0 mm 3 m/s 718 mmHg 67%
    09:00 +31°C° 0 mm 3 m/s 718 mmHg 62%
    10:00 +33°C° 0 mm 3 m/s 718 mmHg 56%
    11:00 +35°C° 0 mm 3 m/s 718 mmHg 50%
    12:00 +36°C° 0 mm 3 m/s 718 mmHg 47%
    13:00 +36°C° 0 mm 3 m/s 718 mmHg 44%
    14:00 +37°C° 0 mm 4 m/s 717 mmHg 40%
    15:00 +37°C° 0 mm 4 m/s 717 mmHg 41%
    16:00 +37°C° 0 mm 4 m/s 717 mmHg 41%
    17:00 +36°C° 0 mm 4 m/s 716 mmHg 42%
    18:00 +34°C° 0,2 mm 3 m/s 717 mmHg 48%
    19:00 +33°C° 0,2 mm 3 m/s 717 mmHg 55%
    20:00 +30°C° 0,2 mm 3 m/s 717 mmHg 62%
    21:00 +29°C° 1,4 mm 2 m/s 717 mmHg 67%
    22:00 +28°C° 1,4 mm 2 m/s 718 mmHg 72%
    23:00 +27°C° 1,4 mm 2 m/s 718 mmHg 77%
    Mostrar mais